Regional Weather Roundup
Issued by NWS

Home | Current Version | Previous Version | Text Only | Print | Product List | Glossary On
Versions: 1 2 3 4 5 6 7 8 9 10 11 12 13 14 15 16 17 18 19 20 21 22 23 24 25 26 27 28 29 30 31 32 33 34 35 36 37 38 39 40 41 42 43 44 45 46 47 48 49 50
000
ASUS45 KREV 200510
RWRNV
NEVADA REGIONAL WEATHER ROUNDUP
NATIONAL WEATHER SERVICE RENO NV
900 PM PST THU JAN 19 2017

NOTE: "FAIR" INDICATES FEW OR NO CLOUDS BELOW 12,000 FEET WITH NO
SIGNIFICANT WEATHER AND/OR OBSTRUCTIONS TO VISIBILITY.

NVZ001-003-004-200600-
WESTERN NEVADA

CITY           SKY/WX    TMP DP  RH WIND       PRES   REMARKS
RENO           CLOUDY    36  28  73 NE6       29.64F
CARSON CITY    CLOUDY    34  27  75 CALM      29.67F
MINDEN         MOCLDY    32  25  74 CALM      29.67S
PYRAMID LAKE     N/A     37 N/A N/A E5          N/A
FALLON         MOCLDY    35  28  75 SE7       29.65F
LOVELOCK       MOCLDY    32  28  85 S5        29.66F
$$

NVZ002-CAZ072-073-200600-
NORTHERN AND CENTRAL SIERRA

CITY           SKY/WX    TMP DP  RH WIND       PRES   REMARKS
S. LAKE TAHOE  CLOUDY    29  22  75 S9        29.64F
TRUCKEE        CLOUDY    30  23  74 SW5       29.65F
SQUAW VLY 8000   N/A     21  21 100 S13         N/A
MAMMOTH LAKES  FAIR      22  16  76 CALM      29.71S
BRIDGEPORT       N/A     28  18  66 VRB3      29.62F
$$

NVZ030-031-036-200600-
NORTHERN NEVADA

CITY           SKY/WX    TMP DP  RH WIND       PRES   REMARKS
ELKO           CLEAR     22  18  85 CALM      29.67F
WINNEMUCCA     MOCLDY    32  29  88 S9        29.64F
WENDOVER       CLOUDY    23  21  93 CALM      29.72S
$$

NVZ035-037-200600-
CENTRAL NEVADA

CITY           SKY/WX    TMP DP  RH WIND       PRES   REMARKS
ELY            CLEAR     12  11  95 S10       29.69F WCI  -1
EUREKA           N/A     19  14  81 S5        29.68F
$$

NVZ013-014-200600-
SOUTH CENTRAL NEVADA

CITY           SKY/WX    TMP DP  RH WIND       PRES   REMARKS
TONOPAH        CLEAR     29  26  89 CALM      29.71F
$$

NVZ017-020-022-200600-
SOUTHERN NEVADA

CITY           SKY/WX    TMP DP  RH WIND       PRES   REMARKS
LAS VEGAS      PTCLDY    50  37  61 W3        29.75R
N. LAS VEGAS   PTCLDY    46  42  86 E7        29.75F
NELLIS AFB     PTCLDY    47  43  85 NE14      29.75F
HENDERSON      PTCLDY    48  34  58 SW15      29.77F
MERCURY        PTCLDY    41  33  73 NE6       29.73S
$$



USA.gov is the U.S. government's official web portal to all federal, state and local government web resources and services.